Location: Unspecified
(0.0000°N, 0.0000°E)
Time: 07:45:11
(UTC+00:00)

Transit 4A - Pass Details

Date: 29 May 2022
Orbit: 864 x 980 km, 66.8° (Epoch: 24 June)

Event Time Altitude Azimuth Distance (km) Brightness Sun altitude
Rises 02:09:07 0° 217° (SW) 3,580 - -51.3°
Reaches altitude 10° 02:11:49 10° 225° (SW) 2,652 - -50.7°
Maximum altitude 02:17:25 36° 290° (WNW) 1,464 - -49.6°
Drops below altitude 10° 02:23:09 10° 355° (N) 2,703 - -48.4°
Exits shadow 02:24:54 - 1° (N) 3,292 11.0 -48.1°
Sets 02:25:56 0° 3° (N) 3,656 11.3 -47.8°
